Flight Track Log - Related Links

Times and Time Zones

All times are in EDT time to prevent confusion due to time zone crossing. See the AMF1017 flight status page for this flight to view local times or setup timezone preferences in your user account.

Time Position Orientation Groundspeed Altitude Reporting Facility
EDT Latitude Longitude Course Direction KTS MPH feet Rate Location/Type
Fri 07:49:31 PM 37.6458 -97.4403 176° South 96 110 1,900  Level Kansas City Center
Fri 07:50:50 PM 37.5994 -97.4367 176° South 153 176 3,700 1,320 Climbing Kansas City Center
Fri 07:51:11 PM 37.5872 -97.4339 170° South 138 159 4,100 1,300 Climbing Kansas City Center
Fri 07:51:50 PM 37.5581 -97.4219 162° South 164 189 5,000 1,258 Climbing Kansas City Center
Fri 07:52:13 PM 37.5439 -97.4169 164° South 150 173 5,400 1,129 Climbing Kansas City Center
Fri 07:53:15 PM 37.5008 -97.3975 160° South 159 183 6,600 968 Climbing Kansas City Center
Fri 07:54:17 PM 37.4564 -97.3783 161° South 163 188 7,400 878 Climbing Kansas City Center
Fri 07:55:18 PM 37.4042 -97.3600 164° South 188 216 8,400 1,268 Climbing Kansas City Center
Fri 07:56:20 PM 37.3425 -97.3339 161° South 191 220 10,000 1,452 Climbing Kansas City Center
Fri 07:57:22 PM 37.2919 -97.3111 160° South 192 221 11,400 1,258 Climbing Kansas City Center
Fri 07:58:24 PM 37.2411 -97.2903 162° South 192 221 12,600 1,065 Climbing Kansas City Center
Fri 07:59:26 PM 37.1861 -97.2708 164° South 200 230 13,600 1,161 Climbing Kansas City Center
Fri 08:00:28 PM 37.1314 -97.2528 165° South 200 230 15,000 1,161 Climbing Kansas City Center
Fri 08:01:30 PM 37.0756 -97.2339 165° South 204 235 16,000 435 Climbing Kansas City Center
Fri 08:02:32 PM 36.9989 -97.2125 167° South 231 266 15,900  Descending Kansas City Center
Fri 08:03:34 PM 36.9289 -97.1986 171° South 249 287 16,000 48 Climbing Kansas City Center
Fri 08:04:36 PM 36.8586 -97.1833 170° South 252 290 16,000  Level Kansas City Center
Fri 08:05:37 PM 36.7942 -97.1700 171° South 252 290 16,000  Level Kansas City Center
Fri 08:06:39 PM 36.7131 -97.1575 173° South 247 284 16,000  Level Kansas City Center
Fri 08:07:41 PM 36.6469 -97.1744 192° South 244 281 16,000  Level Kansas City Center
Fri 08:08:43 PM 36.5814 -97.1864 188° South 242 278 16,000  Level Kansas City Center
Fri 08:09:45 PM 36.5181 -97.2061 194° South 241 277 16,000  Level Kansas City Center
Fri 08:10:47 PM 36.4528 -97.2239 192° South 239 275 16,000  Level Kansas City Center
Fri 08:11:48 PM 36.3889 -97.2444 195° South 239 275 16,000  Level Kansas City Center
Fri 08:12:50 PM 36.3239 -97.2622 192° South 239 275 16,000  Level Kansas City Center
Fri 08:13:52 PM 36.2439 -97.2850 193° South 241 277 16,000  Level Kansas City Center
Fri 08:14:54 PM 36.1772 -97.3042 193° South 242 278 16,000  Level Kansas City Center
Fri 08:15:56 PM 36.1114 -97.3242 194° South 242 278 16,000  Level Kansas City Center
Fri 08:16:39 PM 36.0575 -97.3403 194° South 245 282 16,000  Level Fort Worth Center
Fri 08:17:41 PM 35.9917 -97.3589 193° South 245 282 16,000  Level Fort Worth Center
Fri 08:18:43 PM 35.9264 -97.3764 192° South 242 278 16,000  Level Fort Worth Center
Fri 08:19:45 PM 35.8592 -97.3942 192° South 243 280 16,000  Level Fort Worth Center
Fri 08:20:47 PM 35.7939 -97.4164 195° South 245 282 16,000  Level Fort Worth Center
Fri 08:21:49 PM 35.7269 -97.4397 196° South 248 285 16,000  Level Fort Worth Center
Fri 08:22:51 PM 35.6483 -97.4700 197° South 248 285 16,000  Level Fort Worth Center
Fri 08:23:53 PM 35.5844 -97.4958 198° South 246 283 16,000  Level Fort Worth Center
Fri 08:24:55 PM 35.5200 -97.5206 197° South 245 282 16,000  Level Fort Worth Center
Fri 08:25:57 PM 35.4550 -97.5447 197° South 246 283 16,000  Level Fort Worth Center
Fri 08:26:59 PM 35.3778 -97.5756 198° South 246 283 16,000  Level Fort Worth Center
Fri 08:28:01 PM 35.3075 -97.5719 178° South 261 300 16,000  Level Fort Worth Center
Fri 08:29:03 PM 35.2361 -97.5653 176° South 261 300 16,000  Level Fort Worth Center
Fri 08:30:05 PM 35.1639 -97.5589 176° South 261 300 16,000  Level Fort Worth Center
Fri 08:31:07 PM 35.0925 -97.5531 176° South 261 300 16,000  Level Fort Worth Center
Fri 08:32:09 PM 35.0056 -97.5467 177° South 261 300 16,000  Level Fort Worth Center
Fri 08:33:11 PM 34.9317 -97.5425 177° South 263 303 16,000  Level Fort Worth Center
Fri 08:34:13 PM 34.8578 -97.5358 176° South 264 304 16,000  Level Fort Worth Center
Fri 08:35:15 PM 34.7842 -97.5272 175° South 266 306 16,000  Level Fort Worth Center
Fri 08:36:17 PM 34.7106 -97.5161 173° South 266 306 16,000  Level Fort Worth Center
Fri 08:37:19 PM 34.6367 -97.5058 173° South 267 307 16,000  Level Fort Worth Center
Fri 08:38:22 PM 34.5478 -97.4939 174° South 268 308 16,000  Level Fort Worth Center
Fri 08:39:24 PM 34.4739 -97.4833 173° South 267 307 16,000  Level Fort Worth Center
Fri 08:40:26 PM 34.3997 -97.4725 173° South 267 307 16,000  Level Fort Worth Center
Fri 08:41:28 PM 34.3269 -97.4747 181° South 265 305 16,000  Level Fort Worth Center
Fri 08:42:30 PM 34.2508 -97.5011 196° South 257 296 16,000  Level Fort Worth Center
Fri 08:43:32 PM 34.1811 -97.5294 199° South 253 291 16,000 -484 Level Fort Worth Center
Fri 08:44:34 PM 34.1089 -97.5597 199° South 264 304 15,000 -968 Descending Fort Worth Center
Fri 08:45:36 PM 34.0322 -97.5931 200° South 277 319 14,000 -919 Descending Fort Worth Center
Fri 08:46:38 PM 33.9603 -97.6256 201° Southwest 281 323 13,100 -968 Descending Fort Worth Center
Fri 08:47:40 PM 33.8833 -97.6622 202° Southwest 280 322 12,000 -919 Descending Fort Worth Center
Fri 08:48:42 PM 33.8092 -97.7008 203° Southwest 280 322 11,200 -823 Descending Fort Worth Center
Fri 08:49:44 PM 33.7386 -97.7436 207° Southwest 275 316 10,300 -823 Descending Fort Worth Center
Fri 08:50:46 PM 33.6736 -97.7806 205° Southwest 266 306 9,500 -726 Descending Fort Worth Center
Fri 08:51:48 PM 33.6039 -97.8164 203° Southwest 265 305 8,800 -871 Descending Fort Worth Center
Fri 08:52:50 PM 33.5247 -97.8242 185° South 266 306 7,700 -919 Descending Fort Worth Center
Fri 08:53:52 PM 33.4675 -97.7581 136° Southeast 279 321 6,900 -774 Descending Fort Worth Center
Fri 08:54:54 PM 33.4100 -97.6897 135° Southeast 272 313 6,100 -774 Descending Fort Worth Center
Fri 08:55:56 PM 33.3617 -97.6225 131° Southeast 269 310 5,300 -484 Descending Fort Worth Center
Fri 08:56:58 PM 33.3150 -97.5572 131° Southeast 261 300 5,100 -145 Descending Fort Worth Center
Fri 08:58:00 PM 33.2683 -97.4886 129° Southeast 250 288 5,000 -48 Descending Fort Worth Center
Fri 08:59:02 PM 33.2408 -97.4142 114° Southeast 246 283 5,000  Level Fort Worth Center
Fri 09:00:04 PM 33.2150 -97.3389 112° Southeast 246 283 5,000  Level Fort Worth Center
Fri 09:01:06 PM 33.1883 -97.2569 111° Southeast 246 283 5,000 -97 Level Fort Worth Center
Fri 09:02:08 PM 33.1619 -97.1817 113° Southeast 246 283 4,800 -634 Descending Fort Worth Center
Fri 09:03:09 PM 33.1106 -97.1139 132° Southeast 253 291 3,700 -829 Descending Fort Worth Center
Fri 09:04:11 PM 33.0575 -97.0661 143° Southeast 239 275 3,100 -629 Descending Fort Worth Center
Fri 09:05:13 PM 33.0036 -97.0561 171° South 195 224 2,400 -726 Descending Fort Worth Center
Fri 09:06:15 PM 32.9564 -97.0564 180° South 158 182 1,600 -726 Descending Fort Worth Center
Fri 09:07:17 PM 32.9239 -97.0558 179° South 127 146 900 -677 Descending Fort Worth Center
Fri 09:09:00 PM 32.8968 -97.0380 128° Southeast  Level Estimated
Fri 09:16:00 PM 32.8968 -97.0380 128° Southeast  Level Estimated

Login

Don't have an account? Register now (free) for customized features, flight alerts, and more!